DW1824 Weather Reports


time (UTC)temp
C
wind
direction
speed
KPH
gust
KPH
rain 1hr
cm
rain 24hr
cm
rain mn
cm
humidity
%
barometer
mb
20260509095338 23 180 0.0 0.0 0.00 0.00 0.00 95 1009.9
20260509094325 23 180 0.0 0.0 0.00 0.00 0.00 95 1009.6
20260509093335 23 180 0.0 0.0 0.00 0.00 0.00 95 1009.6
20260509092341 23 180 0.0 0.0 0.00 0.00 0.00 95 1009.7
20260509091329 23 180 0.0 0.0 0.00 0.00 0.00 95 1009.8
20260509090339 23 181 0.0 0.0 0.00 0.00 0.00 95 1010.0
20260509085328 23 181 0.0 0.0 0.00 0.00 0.00 95 1010.2
20260509084357 23 177 0.0 0.0 0.00 0.00 0.00 95 1010.2
20260509083327 23 177 0.0 0.0 0.00 0.00 0.00 95 1010.1
20260509082334 23 177 0.0 0.0 0.00 0.00 0.00 95 1010.2
20260509081341 23 150 0.0 4.8 0.00 0.00 0.00 95 1010.2
20260509080329 23 121 0.0 0.0 0.00 0.00 0.00 95 1010.1
20260509075339 23 119 0.0 4.8 0.00 0.00 0.00 95 1010.1
20260509074324 23 127 1.6 6.4 0.00 0.00 0.00 95 1009.9
20260509073334 23 138 4.8 8.0 0.00 0.00 0.00 95 1009.7
20260509072341 23 132 4.8 8.0 0.00 0.00 0.00 95 1009.8
20260509071329 23 122 4.8 11.3 0.00 0.00 0.00 94 1009.8
20260509070338 23 119 6.4 12.9 0.00 0.00 0.00 94 1009.6
20260509065329 23 133 6.4 9.7 0.00 0.00 0.00 94 1009.8
20260509064335 23 123 6.4 12.9 0.00 0.00 0.00 94 1009.9
20260509063324 23 127 4.8 8.0 0.00 0.00 0.00 93 1010.1
20260509062350 23 129 4.8 8.0 0.00 0.00 0.00 93 1010.3
20260509061337 23 127 3.2 4.8 0.00 0.00 0.00 93 1010.4
20260509060323 23 133 4.8 8.0 0.00 0.00 0.00 92 1010.6
20260509055330 23 131 4.8 6.4 0.00 0.00 0.00 92 1010.5
20260509054342 23 126 4.8 9.7 0.00 0.00 0.00 92 1010.5
20260509053329 23 129 3.2 4.8 0.00 0.00 0.00 92 1010.6
20260509052336 23 129 3.2 4.8 0.00 0.00 0.00 92 1010.6
20260509051343 23 131 1.6 3.2 0.00 0.00 0.00 92 1010.7
20260509050330 23 151 0.0 0.0 0.00 0.00 0.00 92 1010.6
20260509045329 23 95 0.0 0.0 0.00 0.00 0.00 92 1010.5
20260509044337 23 81 0.0 0.0 0.00 0.00 0.00 91 1010.5
20260509043325 23 52 0.0 0.0 0.00 0.00 0.00 91 1010.5
20260509042337 23 115 0.0 0.0 0.00 0.00 0.00 91 1010.5
20260509041343 23 113 0.0 4.8 0.00 0.00 0.00 91 1010.5
20260509040331 23 128 4.8 9.7 0.00 0.00 0.00 91 1010.4
20260509035336 23 102 3.2 6.4 0.00 0.00 0.00 91 1010.4
20260509034403 23 125 4.8 9.7 0.00 0.00 0.00 91 1010.4
20260509033324 23 144 3.2 6.4 0.00 0.00 0.00 91 1010.3
20260509032352 23 129 0.0 3.2 0.00 0.00 0.00 91 1010.2
20260509031339 23 28 0.0 3.2 0.00 0.00 0.00 91 1010.0
20260509030332 23 54 0.0 0.0 0.00 0.00 0.00 91 1010.1
20260509025340 23 54 0.0 0.0 0.00 0.00 0.00 91 1010.0
20260509024325 23 54 0.0 0.0 0.00 0.00 0.00 90 1009.9
20260509023333 23 54 0.0 0.0 0.00 0.00 0.00 90 1009.9
20260509022341 23 54 0.0 0.0 0.00 0.00 0.00 90 1010.0
20260509021330 23 102 0.0 0.0 0.00 0.00 0.00 90 1009.7
20260509020341 23 131 0.0 0.0 0.00 0.00 0.00 90 1009.6
20260509015352 23 131 0.0 0.0 0.00 0.00 0.00 90 1009.4
20260509014324 23 128 0.0 4.8 0.00 0.00 0.00 90 1009.2
20260509013335 23 82 0.0 1.6 0.00 0.00 0.00 89 1009.2
20260509012344 23 82 0.0 1.6 0.00 0.00 0.00 89 1009.2
20260509011332 23 27 0.0 0.0 0.00 0.00 0.00 89 1009.2
20260509010340 23 107 0.0 1.6 0.00 0.00 0.00 89 1009.4
20260509005331 23 111 0.0 4.8 0.00 0.00 0.00 88 1009.3
20260509004339 23 92 1.6 3.2 0.00 0.00 0.00 88 1009.1
20260509003330 23 140 1.6 8.0 0.00 0.00 0.00 88 1009.1
20260509002336 24 111 0.0 1.6 0.00 0.00 0.00 88 1009.0
20260509001403 24 119 0.0 3.2 0.00 0.00 0.00 88 1009.0
20260509000330 24 102 1.6 4.8 0.00 0.00 0.00 88 1009.1
20260508235337 24 108 0.0 3.2 0.00 0.00 0.00 88 1009.2
20260508234329 24 77 0.0 3.2 0.00 0.00 0.00 88 1009.2
20260508233338 24 95 0.0 0.0 0.00 0.00 0.00 87 1009.2
20260508232325 24 84 0.0 4.8 0.00 0.00 0.00 87 1009.1
20260508231353 25 111 1.6 4.8 0.00 0.00 0.00 87 1009.2
20260508230339 25 115 0.0 0.0 0.00 0.00 0.00 87 1009.2
20260508225325 25 111 0.0 4.8 0.00 0.00 0.00 87 1009.2
20260508224332 25 125 3.2 4.8 0.00 0.00 0.00 87 1009.3
20260508223327 25 98 0.0 3.2 0.00 0.00 0.00 86 1009.3
20260508222336 25 115 0.0 1.6 0.00 0.00 0.00 86 1009.1
20260508221343 25 115 0.0 4.8 0.00 0.00 0.00 86 1009.3
20260508220332 25 38 0.0 4.8 0.00 0.00 0.00 86 1009.4
20260508215338 25 115 1.6 11.3 0.00 0.00 0.00 85 1009.4
20260508214326 25 134 1.6 9.7 0.00 0.00 0.00 86 1009.4
20260508213334 25 143 0.0 4.8 0.00 0.00 0.00 86 1009.5
20260508212326 25 48 0.0 3.2 0.00 0.00 0.00 85 1009.5
20260508211334 25 102 1.6 6.4 0.00 0.00 0.00 85 1009.6
20260508210324 25 130 4.8 9.7 0.00 0.00 0.00 85 1010.1
20260508205332 25 143 3.2 8.0 0.00 0.00 0.00 85 1010.2
20260508204340 25 121 1.6 6.4 0.00 0.00 0.00 84 1010.3
20260508203327 25 125 3.2 4.8 0.00 0.00 0.00 84 1010.3
20260508202339 25 115 1.6 8.0 0.00 0.00 0.00 83 1010.4
20260508201326 25 133 3.2 6.4 0.00 0.00 0.00 83 1010.5
20260508200335 25 98 0.0 8.0 0.00 0.00 0.00 84 1010.6
20260508195342 24 104 4.8 6.4 0.00 0.00 0.00 84 1010.4
20260508194351 24 124 4.8 9.7 0.00 0.00 0.00 83 1010.9
20260508193337 23 102 1.6 4.8 0.00 0.00 0.00 84 1010.9
20260508192328 23 136 1.6 4.8 0.00 0.00 0.00 84 1011.1
20260508191337 23 115 1.6 4.8 0.00 0.00 0.00 84 1011.0
20260508190326 23 58 0.0 0.0 0.00 0.00 0.00 85 1011.0
20260508185335 23 19 0.0 3.2 0.00 0.00 0.00 85 1011.7
20260508184402 23 54 0.0 0.0 0.00 0.00 0.00 84 1011.7
20260508183326 23 54 0.0 0.0 0.00 0.00 0.00 84 1011.7
20260508182334 23 45 0.0 1.6 0.00 0.00 0.00 84 1011.7
20260508181324 23 140 1.6 3.2 0.00 0.00 0.00 85 1011.6
20260508180354 22 119 1.6 6.4 0.00 0.00 0.00 85 1011.6
20260508175340 22 44 0.0 8.0 0.00 0.00 0.00 85 1011.7
20260508174326 22 69 1.6 4.8 0.00 0.00 0.00 85 1011.9
20260508173352 22 112 0.0 3.2 0.00 0.00 0.00 86 1012.1
20260508172340 22 65 0.0 1.6 0.00 0.00 0.00 86 1012.3
20260508171327 22 129 1.6 3.2 0.00 0.00 0.00 85 1012.6
20260508170326 22 82 1.6 6.4 0.00 0.00 0.00 86 1012.7
20260508165354 21 340 0.0 8.0 0.00 0.00 0.00 86 1012.8
20260508164400 21 34 0.0 4.8 0.00 0.00 0.00 87 1012.8
20260508162404 21 48 0.0 3.2 0.00 0.00 0.00 87 1013.1
20260508161330 21 31 0.0 3.2 0.00 0.00 0.00 87 1013.1
20260508160358 21 7 1.6 4.8 0.00 0.00 0.00 87 1013.0
20260508155345 20 69 1.6 9.7 0.00 0.00 0.00 87 1012.9
20260508154351 20 66 1.6 16.1 0.00 0.00 0.00 87 1012.9
20260508153339 20 65 1.6 14.5 0.00 0.00 0.00 87 1013.1
20260508152328 20 13 3.2 14.5 0.00 0.00 0.00 87 1013.2
20260508151336 20 359 3.2 14.5 0.00 0.00 0.00 88 1013.2
20260508150341 20 33 1.6 9.7 0.00 0.00 0.00 88 1013.3
20260508145330 20 360 3.2 9.7 0.00 0.00 0.00 88 1013.5
20260508144335 20 2 3.2 12.9 0.00 0.00 0.00 87 1013.5
20260508143342 20 11 3.2 8.0 0.00 0.00 0.00 88 1013.5
20260508142334 20 34 1.6 12.9 0.00 0.00 0.00 88 1013.4
20260508141341 20 358 4.8 9.7 0.00 0.00 0.00 88 1013.3
20260508140327 20 9 3.2 6.4 0.00 0.00 0.00 88 1013.6
20260508135334 20 12 0.0 9.7 0.00 0.00 0.00 88 1013.5
20260508134341 20 5 1.6 8.0 0.00 0.00 0.00 88 1013.4
20260508133328 20 318 0.0 8.0 0.00 0.00 0.00 88 1013.5
20260508132339 20 336 0.0 4.8 0.00 0.00 0.00 88 1013.6
20260508131328 20 335 0.0 6.4 0.00 0.00 0.00 88 1013.4
20260508130333 20 356 1.6 6.4 0.00 0.00 0.00 88 1013.1
20260508125340 20 340 1.6 6.4 0.00 0.00 0.00 88 1013.6
20260508124329 19 321 1.6 6.4 0.00 0.00 0.00 88 1013.8
20260508123334 19 357 0.0 0.0 0.00 0.00 0.00 88 1013.6
20260508122325 19 356 0.0 3.2 0.00 0.00 0.00 88 1013.3
20260508121332 19 12 1.6 3.2 0.00 0.00 0.00 88 1013.4
20260508120339 19 43 0.0 4.8 0.00 0.00 0.00 87 1013.4
20260508115327 19 358 0.0 6.4 0.00 0.00 0.00 87 1013.5
20260508114334 19 36 0.0 3.2 0.00 0.00 0.00 87 1013.6
20260508113343 19 14 0.0 4.8 0.00 0.00 0.00 86 1014.0
20260508112332 19 308 1.6 4.8 0.00 0.00 0.00 85 1014.3
20260508111404 20 300 3.2 6.4 0.00 0.00 0.00 84 1014.1
20260508110350 20 331 0.0 8.0 0.00 0.00 0.00 83 1013.5
20260508105335 20 314 1.6 8.0 0.00 0.00 0.00 84 1013.6
20260508104343 20 283 4.8 12.9 0.00 0.00 0.00 84 1013.4
20260508103328 20 76 0.0 0.0 0.00 0.00 0.00 84 1012.8
20260508102335 20 76 0.0 1.6 0.00 0.00 0.00 83 1013.1
20260508101344 20 77 0.0 4.8 0.00 0.00 0.00 83 1012.9
20260508100333 20 69 0.0 1.6 0.00 0.00 0.00 83 1012.6